Date,TemperatureHighF,TemperatureAvgF,TemperatureLowF,DewpointHighF,DewpointAvgF,DewpointLowF,HumidityHigh,HumidityAvg,HumidityLow,PressureMaxIn,PressureMinIn,WindSpeedMaxMPH,WindSpeedAvgMPH,GustSpeedMaxMPH,PrecipitationSumIn
2013-1-1,17,5,-5,-2,-12,-18,51,44,32,29.32,29.18,12,3,12,0.00
2013-1-2,26,15,2,23,1,-18,90,55,36,29.21,29.06,18,6,18,0.00
2013-1-3,28,15,6,25,4,-7,90,60,55,29.38,29.15,23,9,23,2.00
2013-1-4,31,19,7,17,7,-6,86,59,49,29.29,29.21,24,7,24,0.00
2013-1-5,37,26,17,29,19,11,91,75,57,29.21,28.97,27,7,27,0.00
2013-1-6,26,17,10,11,7,1,87,65,39,29.32,29.03,24,7,24,0.00
2013-1-7,41,30,16,21,15,8,79,54,37,29.26,29.06,26,6,26,0.00
2013-1-8,40,33,24,28,22,16,90,66,50,29.09,28.94,26,7,26,0.00
2013-1-9,42,33,29,27,24,21,87,70,46,29.47,29.06,27,7,27,0.00
2013-1-10,37,33,28,35,25,15,99,75,39,29.47,28.79,27,10,27,0.04
2013-1-11,50,42,34,47,40,34,99,94,68,28.79,28.59,24,8,24,0.00
2013-1-12,50,26,15,40,11,-3,88,54,40,29.12,28.59,36,15,36,0.00
2013-1-13,15,11,8,-2,-7,-10,47,44,42,29.32,29.03,27,10,27,0.00
2013-1-14,30,15,5,6,-3,-13,62,44,27,29.50,29.32,21,3,21,0.00
2013-1-15,32,22,13,6,2,0,65,43,25,29.41,29.12,18,4,18,0.00
2013-1-16,42,29,18,32,15,1,90,56,44,29.18,28.88,31,11,31,0.00
2013-1-17,32,23,14,17,7,-11,74,53,17,29.47,29.18,19,6,19,0.00
2013-1-18,53,37,22,26,20,12,74,52,25,29.38,28.91,40,9,40,0.00
2013-1-19,52,36,13,29,20,-6,76,53,30,29.21,28.82,50,12,50,0.00
2013-1-20,14,10,6,0,-5,-11,46,32,46,29.41,29.21,31,10,31,0.00
2013-1-21,10,3,-4,0,0,0,0,0,100,29.38,29.29,28,13,28,0.00
2013-1-22,12,5,-5,0,0,0,0,0,100,29.44,29.32,24,5,24,0.00
2013-1-23,30,16,3,2,-4,-17,49,25,27,29.53,29.18,32,10,32,0.00
2013-1-24,19,9,0,-2,-16,-28,39,32,13,29.65,29.26,22,9,22,0.00
2013-1-25,33,21,8,10,0,-42,48,39,28,29.32,29.06,37,11,37,0.00
2013-1-26,29,17,2,4,-6,-17,44,35,26,29.41,29.26,26,7,26,0.00
2013-1-27,37,32,28,37,22,3,99,74,33,29.26,28.82,29,10,29,0.12
2013-1-28,42,36,32,42,35,31,99,99,99,28.97,28.70,32,6,32,0.47
2013-1-29,54,40,32,54,39,31,99,98,91,28.70,28.56,21,8,21,0.12
2013-1-30,33,22,12,32,19,3,99,86,69,28.82,28.44,28,15,28,0.00
2013-1-31,12,4,-4,4,-4,-12,69,69,69,29.32,28.82,32,11,32,0.00
2013-2-1,14,1,-10,6,-7,-18,69,69,68,29.41,29.09,25,1,25,0.00
2013-2-2,21,15,11,13,3,-4,72,57,43,29.18,29.00,21,2,21,0.00
2013-2-3,22,18,12,17,7,-1,89,62,40,29.15,28.91,28,6,28,0.00
2013-2-4,28,20,12,15,8,2,79,59,39,29.03,28.82,17,3,17,0.00
2013-2-5,41,26,14,24,16,8,78,67,44,29.15,28.82,27,5,27,0.00
2013-2-6,39,28,13,28,19,10,91,71,51,29.18,29.00,24,6,24,0.00
2013-2-7,38,34,27,36,30,22,99,88,60,29.18,28.94,24,5,24,0.20
2013-2-8,32,28,26,23,19,13,82,70,48,29.38,29.18,20,5,20,0.00
2013-2-9,31,28,26,27,22,19,90,78,69,29.35,28.97,31,11,31,0.00
2013-2-10,47,37,30,45,33,22,99,88,50,29.00,28.35,47,15,47,0.16
2013-2-11,33,31,29,22,20,16,71,62,56,28.73,28.53,43,26,43,0.00
2013-2-14,34,28,20,29,20,1,94,76,43,29.15,28.97,28,9,28,0.00
2013-2-15,30,20,14,9,3,-1,65,47,30,29.29,29.15,25,9,25,0.00
2013-2-16,28,17,10,10,3,-4,74,54,38,29.29,29.18,22,4,22,0.00
2013-2-17,36,25,12,15,10,5,76,53,35,29.18,28.79,34,13,34,0.00
2013-2-18,49,32,12,30,18,-2,83,57,34,28.85,28.59,38,15,38,0.00
2013-2-19,19,9,1,-1,-8,-18,54,45,30,29.35,28.85,37,17,37,0.00
2013-2-20,31,14,0,6,-8,-20,60,39,17,29.44,29.35,20,5,20,0.00
2013-2-21,25,19,12,23,9,-1,98,65,48,29.38,28.94,29,9,29,0.00
2013-2-22,30,25,20,25,19,13,98,81,67,28.97,28.82,23,7,23,0.00
2013-2-23,27,19,11,14,9,3,78,63,40,29.03,28.97,17,5,17,0.00
2013-2-24,34,20,5,18,9,-3,81,63,39,29.15,29.00,11,2,11,0.04
2013-2-25,38,29,19,25,20,14,86,68,42,29.15,28.97,14,2,14,0.00
2013-2-26,34,31,30,31,25,18,99,78,57,28.97,28.70,32,10,32,0.00
2013-2-27,32,30,28,31,28,25,99,93,78,28.94,28.76,24,9,24,0.12
2013-2-28,36,30,25,26,22,18,90,73,50,29.15,28.94,21,8,21,0.00
2013-3-1,34,26,16,22,13,3,88,59,30,29.32,29.15,20,5,20,0.00
2013-3-2,32,16,4,7,2,-5,69,56,27,29.32,29.23,16,2,16,0.00
2013-3-3,32,18,3,8,2,-5,71,51,26,29.23,29.03,18,5,18,0.00
2013-3-4,32,26,22,20,17,7,92,67,47,29.06,28.91,37,13,37,0.00
2013-3-5,34,28,21,26,21,13,95,77,50,29.23,28.94,25,7,25,0.12
2013-3-6,32,22,8,18,11,0,82,64,42,29.41,29.23,24,6,24,0.00
2013-3-7,35,16,-1,17,7,-8,81,67,36,29.44,29.35,16,4,16,0.00
2013-3-8,40,30,19,29,20,14,88,70,46,29.38,29.18,25,11,25,0.00
2013-3-9,40,37,33,40,35,27,99,94,70,29.18,28.73,32,13,32,0.91
2013-3-10,39,36,34,38,36,33,99,99,99,28.79,28.64,27,6,27,0.63
2013-3-11,34,30,25,33,25,12,99,83,58,28.94,28.67,27,9,27,0.00
2013-3-12,35,26,21,26,15,7,80,62,38,29.21,28.94,35,12,35,0.00
2013-3-13,36,25,16,14,8,-1,73,51,25,29.41,29.18,23,6,23,0.00
2013-3-14,49,33,21,28,19,13,87,58,32,29.35,29.09,28,2,28,0.00
2013-3-15,46,35,28,32,29,26,94,80,49,29.09,28.79,20,2,20,0.00
2013-3-16,34,31,24,33,22,12,99,72,48,29.21,28.82,28,5,28,0.00
2013-3-17,35,28,21,22,12,3,70,52,37,29.23,28.94,32,10,32,0.00
2013-3-18,32,26,15,32,18,0,99,73,48,28.94,28.70,40,12,40,0.00
2013-3-19,29,19,10,13,2,-4,67,47,30,29.23,28.94,33,13,33,0.00
2013-3-20,26,17,10,2,-4,-7,51,40,28,29.26,29.15,36,14,36,0.00
2013-3-21,36,20,6,10,0,-8,67,43,16,29.15,29.06,13,1,13,0.00
2013-3-22,44,27,13,16,8,-6,72,48,15,29.12,29.06,12,1,12,0.00
2013-3-23,46,33,22,25,14,0,82,51,17,29.15,29.06,17,2,17,0.00
2013-3-24,33,30,27,28,26,20,96,87,65,29.09,28.88,20,5,20,0.08
2013-3-25,39,30,26,26,20,14,95,67,42,29.23,28.94,25,9,25,0.08
2013-3-26,47,32,24,21,18,9,84,58,26,29.35,29.23,19,5,19,0.00
2013-3-27,48,35,23,30,15,-2,90,50,14,29.38,29.32,12,0,12,0.00
2013-3-28,51,38,25,24,18,13,77,47,25,29.38,29.29,12,2,12,0.00
2013-3-29,58,44,31,27,22,16,70,44,21,29.35,29.21,14,3,14,0.00
2013-3-30,50,44,39,45,35,22,99,73,47,29.21,28.91,21,6,21,0.04
2013-3-31,52,38,30,43,26,12,99,69,26,29.06,28.88,37,8,37,0.00
2013-4-1,41,30,22,15,10,-1,72,44,21,29.29,29.06,27,9,27,0.00
2013-4-2,46,31,18,21,9,-8,80,46,11,29.38,29.29,28,5,28,0.00
2013-4-3,47,33,18,20,3,-14,81,38,7,29.47,29.29,22,2,22,0.00
2013-4-4,59,44,31,30,18,7,70,36,20,29.29,29.06,25,6,25,0.00
2013-4-5,52,42,29,28,17,2,80,42,15,29.26,29.00,25,7,25,0.00
2013-4-6,63,51,40,48,28,15,81,43,25,29.00,28.61,35,12,35,0.04
2013-4-7,61,49,37,37,31,24,84,54,26,29.00,28.79,22,5,22,0.00
2013-4-8,72,58,45,54,42,29,99,62,22,28.91,28.67,22,6,22,0.43
2013-4-9,56,47,40,52,45,37,99,92,74,28.97,28.76,28,10,28,0.94
2013-4-10,40,37,35,40,35,31,99,91,83,29.09,28.73,38,10,38,1.06
2013-4-11,46,39,35,45,38,32,99,93,79,28.76,28.61,25,7,25,0.20
2013-4-12,39,36,33,35,28,21,99,74,51,28.94,28.61,28,10,28,0.00
2013-4-13,47,38,31,27,22,16,78,53,33,29.03,28.94,26,8,26,0.00
2013-4-14,72,50,37,52,36,24,99,64,20,28.97,28.50,41,11,41,0.55
2013-4-15,52,43,37,51,31,18,99,64,33,29.09,28.67,28,6,28,0.08
2013-4-16,56,42,30,30,26,20,83,55,25,29.26,29.06,20,5,20,0.00
2013-4-17,46,43,39,46,37,25,99,81,44,29.26,28.70,37,9,37,9.09
2013-4-18,54,43,34,52,41,-31,99,93,74,28.73,28.44,36,11,36,0.71
2013-4-19,37,34,31,28,22,16,82,61,45,29.06,28.61,37,16,37,0.31
2013-4-20,52,38,25,25,14,-12,88,46,10,29.38,29.06,17,3,17,0.31
2013-4-21,61,48,38,34,26,16,60,42,32,29.38,29.18,37,16,37,0.00
2013-4-22,65,55,48,48,35,24,89,51,23,29.23,29.00,34,9,34,0.00
2013-4-23,51,39,34,48,27,18,92,64,43,29.12,29.00,26,12,26,0.00
2013-4-24,53,41,27,36,18,-5,88,46,10,29.18,29.06,32,10,32,0.00
2013-4-25,57,44,31,36,14,-14,77,37,5,29.32,29.12,28,9,28,0.00
2013-4-26,68,57,46,43,29,19,70,36,23,29.26,29.18,36,10,36,0.00
2013-4-27,64,56,45,44,37,30,95,55,29,29.26,29.03,24,3,24,0.00
2013-4-28,73,59,40,48,35,23,96,48,16,29.03,28.82,16,3,16,0.00
2013-4-29,79,64,52,53,46,39,89,55,25,28.88,28.67,26,6,26,0.00
2013-4-30,87,74,61,56,38,10,73,34,6,28.94,28.64,45,12,45,0.04
2013-5-1,74,57,43,44,36,30,77,48,23,29.29,28.94,33,12,33,0.00
2013-5-2,43,37,33,35,31,28,95,80,60,29.38,29.26,30,14,30,0.55
2013-5-3,40,36,32,40,34,30,99,94,88,29.32,29.00,25,10,25,1.50
2013-5-4,69,56,40,59,50,40,99,83,42,29.09,28.94,28,7,28,0.35
2013-5-5,76,62,51,58,45,23,99,62,15,29.12,29.03,16,3,16,0.35
2013-5-6,79,64,49,55,39,23,96,49,14,29.12,29.06,11,1,11,0.35
2013-5-7,80,66,49,48,28,-10,90,35,5,29.12,29.03,13,2,13,0.35
2013-5-8,79,64,50,59,42,24,94,53,15,29.06,29.00,25,2,25,0.35
2013-5-9,68,62,57,62,57,51,98,84,58,29.00,28.85,18,4,18,0.35
2013-5-10,65,55,47,55,45,38,95,71,37,29.06,28.91,22,5,22,0.35
2013-5-11,58,51,38,48,20,-14,90,39,6,29.18,28.94,38,12,38,0.35
2013-5-12,49,38,32,24,20,3,66,51,15,29.26,29.15,16,2,16,0.35
2013-5-13,70,56,34,34,19,-7,78,32,5,29.21,28.91,23,5,23,0.35
2013-5-14,94,76,57,49,35,1,71,31,3,28.91,28.61,34,8,34,0.35
2013-5-15,86,72,58,44,27,0,42,23,4,28.97,28.70,21,4,21,0.35
2013-5-16,82,78,71,40,21,4,33,14,5,28.94,28.88,21,5,21,0.00
2013-5-17,79,71,64,61,50,40,89,51,27,29.03,28.91,22,6,22,0.00
2013-5-18,82,72,61,60,53,43,94,56,26,29.03,28.88,28,7,28,0.00
2013-5-19,82,72,63,68,62,54,99,72,46,28.94,28.61,38,11,38,1.38
2013-5-20,79,73,62,63,51,42,99,50,28,28.76,28.64,27,7,27,0.04
2013-5-21,71,64,58,61,51,39,96,65,34,28.73,28.64,25,7,25,0.04
2013-5-22,67,59,57,59,52,48,99,78,52,28.85,28.70,26,6,26,0.12
2013-5-23,70,60,50,58,41,21,99,57,20,29.32,28.85,22,7,22,0.04
2013-5-24,67,56,44,46,27,9,95,38,11,29.47,29.26,26,5,26,0.04
2013-5-25,59,52,48,50,44,29,96,76,33,29.35,29.26,25,7,25,0.79
2013-5-26,57,52,49,55,49,42,99,89,73,29.26,29.06,31,7,31,0.87
2013-5-27,68,61,56,63,59,55,99,94,79,29.09,28.82,22,5,22,0.12
2013-5-28,75,67,60,66,62,55,99,86,60,28.85,28.73,20,3,20,0.39
2013-5-29,81,69,62,66,61,52,99,78,54,28.91,28.76,31,7,31,2.91
2013-5-30,78,70,62,64,60,50,95,71,39,28.82,28.64,32,10,32,0.24
2013-5-31,76,68,61,65,56,44,98,70,35,28.79,28.70,31,7,31,0.00
2013-6-1,69,65,61,65,54,42,96,70,39,28.88,28.67,26,8,26,0.12
2013-6-2,68,58,49,55,38,27,81,50,24,29.09,28.88,25,7,25,0.00
2013-6-3,71,60,44,48,36,22,87,46,18,29.15,29.03,19,2,19,0.00
2013-6-4,63,58,56,54,47,38,80,66,48,29.21,29.06,20,3,20,0.20
2013-6-5,65,61,57,63,56,49,99,86,71,29.09,28.97,22,2,22,1.22
2013-6-6,73,62,57,62,55,43,99,80,37,29.00,28.94,19,2,19,0.00
2013-6-7,72,62,56,58,50,37,99,70,29,29.06,28.97,9,0,9,0.00
2013-6-8,73,65,52,56,46,36,94,56,27,29.00,28.91,17,2,17,0.00
2013-6-9,70,65,60,60,54,45,92,68,47,28.94,28.79,25,6,25,0.00
2013-6-10,80,68,59,64,55,42,99,70,28,28.94,28.82,17,2,17,0.00
2013-6-11,86,73,62,65,59,52,93,64,34,28.97,28.85,18,2,18,0.00
2013-6-12,88,77,68,67,63,55,98,65,35,28.94,28.67,31,6,31,0.31
2013-6-13,85,73,62,66,50,31,93,51,15,29.09,28.82,25,4,25,0.00
2013-6-14,78,68,60,56,50,42,81,53,29,29.18,28.94,25,5,25,0.00
2013-6-15,79,71,64,66,62,56,98,74,50,29.06,28.88,30,4,30,0.24
2013-6-16,90,76,65,69,42,-3,99,46,3,29.00,28.97,17,3,17,0.24
2013-6-17,92,77,61,55,39,11,71,32,5,29.03,28.94,23,4,23,0.24
2013-6-18,82,71,62,53,45,32,70,42,21,29.09,28.97,16,3,16,0.24
2013-6-19,82,71,58,52,45,38,71,42,23,29.18,29.06,19,4,19,0.24
2013-6-20,88,77,64,56,50,43,70,42,23,29.15,29.03,26,7,26,0.24
2013-6-21,82,76,64,67,62,52,99,64,43,29.15,28.94,42,8,42,2.05
2013-6-22,91,80,68,71,66,60,98,67,37,29.06,28.91,37,7,37,1.57
2013-6-23,84,75,68,70,62,48,87,66,30,29.09,28.88,37,7,37,0.12
2013-6-24,71,69,66,69,66,61,99,90,69,29.09,28.91,27,6,27,0.94
2013-6-25,87,77,67,71,67,59,98,74,40,28.94,28.76,24,3,24,0.91
2013-6-26,88,75,64,72,66,61,99,76,47,28.85,28.76,28,2,28,1.61
2013-6-27,87,77,67,65,57,43,89,54,24,28.94,28.85,26,5,26,0.91
2013-6-28,84,74,65,58,49,40,70,43,23,28.91,28.76,32,9,32,0.91
2013-6-29,76,67,63,66,58,48,96,75,42,28.94,28.76,27,7,27,0.91
2013-6-30,81,69,60,58,44,26,84,45,15,29.12,28.94,22,6,22,0.91
2013-7-1,82,70,58,48,39,25,70,36,14,29.18,29.12,22,3,22,0.91
2013-7-2,84,70,59,60,47,33,82,47,22,29.18,29.06,17,1,17,0.91
2013-7-3,83,69,58,52,41,13,77,42,8,29.15,29.06,11,1,11,0.91
2013-7-4,85,72,60,54,46,30,69,43,15,29.12,29.03,17,2,17,0.91
2013-7-5,86,75,64,58,50,33,79,46,16,29.09,29.00,20,4,20,0.91
2013-7-6,88,77,66,62,56,47,87,51,25,29.06,28.97,19,7,19,0.91
2013-7-7,89,79,68,65,59,48,88,53,26,29.00,28.94,18,5,18,0.91
2013-7-8,90,82,75,70,64,59,80,56,40,29.03,28.94,20,4,20,0.00
2013-7-9,89,79,72,75,70,63,99,77,44,29.03,28.91,22,4,22,1.10
2013-7-10,84,75,65,70,53,33,91,53,17,29.12,28.94,21,4,21,0.91
2013-7-11,82,72,59,59,49,32,89,50,20,29.18,29.12,14,2,14,0.91
2013-7-12,81,72,60,56,48,30,82,47,16,29.18,29.09,21,4,21,0.91
2013-7-13,75,69,64,60,55,50,76,62,48,29.21,29.09,16,4,16,0.91
2013-7-14,84,74,64,61,54,43,83,52,25,29.26,29.15,17,3,17,0.91
2013-7-15,88,78,67,70,64,56,93,64,37,29.29,29.23,15,2,15,0.91
2013-7-16,91,82,74,71,65,55,90,60,30,29.32,29.26,15,3,15,0.91
2013-7-17,95,84,74,71,63,49,87,54,23,29.35,29.23,13,2,13,0.91
2013-7-18,93,84,74,69,61,48,82,51,23,29.23,29.00,24,4,24,0.91
2013-7-19,93,81,69,66,59,48,67,48,22,29.00,28.85,21,6,21,0.91
2013-7-20,88,75,60,63,54,36,92,55,17,29.03,28.94,14,2,14,0.91
2013-7-21,81,73,67,66,61,56,92,67,46,29.00,28.88,20,2,20,0.91
2013-7-22,89,74,63,69,62,36,99,70,27,28.94,28.76,45,5,45,0.91
2013-7-23,82,71,62,62,49,30,91,53,17,29.06,28.85,19,5,19,0.00
2013-7-24,80,68,55,57,46,30,93,52,17,29.12,29.06,10,1,10,0.00
2013-7-25,84,71,60,66,53,42,99,58,25,29.12,29.03,19,4,19,1.10
2013-7-26,80,69,59,66,55,34,99,67,24,29.09,29.00,28,8,28,0.51
2013-7-27,68,59,50,52,42,30,89,58,27,29.09,29.00,23,5,23,0.00
2013-7-28,74,62,51,49,42,33,83,52,26,29.12,28.97,20,4,20,0.00
2013-7-29,75,64,50,56,45,36,94,56,26,29.21,29.12,14,1,14,0.00
2013-7-30,67,65,64,64,59,49,93,80,57,29.18,29.09,14,2,14,0.00
2013-7-31,84,72,62,70,58,49,99,67,30,29.15,29.06,17,3,17,0.00
2013-8-1,84,72,59,64,53,31,93,59,15,29.12,28.94,14,2,14,0.04
2013-8-2,87,72,64,64,58,40,92,66,21,29.06,28.91,17,2,17,0.04
2013-8-3,84,70,57,62,47,27,96,52,14,29.23,29.06,14,2,14,0.00
2013-8-4,80,68,55,58,45,28,88,48,17,29.26,29.12,13,1,13,0.00
2013-8-5,77,68,61,70,61,51,99,77,60,29.12,28.88,20,4,20,1.18
2013-8-6,87,76,64,72,64,50,99,72,30,28.94,28.85,14,2,14,0.00
2013-8-7,84,74,64,66,58,48,92,60,35,29.06,28.85,19,4,19,0.00
2013-8-8,99,70,58,60,53,43,89,59,25,29.09,29.03,11,1,11,0.00
2013-8-9,84,72,62,62,55,34,95,61,20,29.18,29.06,16,3,16,0.00
2013-8-10,84,70,54,59,48,32,89,53,18,29.23,29.15,14,1,14,0.00
2013-8-11,82,72,64,67,56,50,91,60,36,29.18,29.06,17,3,17,0.00
2013-8-12,86,72,61,69,56,36,99,65,20,29.09,29.03,19,3,19,0.08
2013-8-13,135,66,55,56,45,26,93,54,15,29.23,29.09,16,2,16,0.00
2013-8-14,78,63,49,52,39,12,91,51,14,29.29,29.18,10,0,10,0.00
2013-8-15,77,66,57,55,44,26,88,50,17,29.21,29.15,14,1,14,0.00
2013-8-16,83,67,52,59,45,27,92,53,15,29.26,29.21,12,1,12,0.00
2013-8-17,82,69,54,57,46,30,89,52,18,29.26,29.18,14,2,14,0.00
2013-8-18,78,64,54,57,50,38,91,64,26,29.26,29.21,13,1,13,0.00
2013-8-20,87,77,66,60,57,50,77,53,29,29.09,29.00,19,5,19,0.00
2013-8-21,88,78,0,66,60,-8,74,57,30,29.06,29.00,24,4,24,0.00
2013-8-22,79,73,68,68,64,59,93,73,54,29.15,29.03,12,2,12,0.12
2013-8-23,82,72,61,68,60,52,99,69,37,29.21,29.12,17,3,17,0.00
2013-8-24,86,75,64,66,61,54,79,62,44,29.23,29.15,21,6,21,0.00
2013-8-25,92,80,70,65,58,49,81,50,26,29.23,29.12,22,5,22,0.00
2013-8-26,94,82,70,66,59,0,77,48,25,29.18,29.00,20,5,20,0.00
2013-8-27,94,83,73,66,61,52,77,51,25,29.03,28.91,24,7,24,0.00
2013-8-28,98,82,72,74,68,58,90,64,28,29.06,28.94,14,2,14,0.00
2013-8-29,94,82,72,74,66,49,96,66,23,29.09,29.00,12,3,12,0.00
2013-8-30,103,85,74,74,66,0,96,61,14,29.00,28.82,15,4,15,0.00
2013-8-31,89,77,70,71,65,55,91,70,32,28.91,28.85,26,3,26,0.00
2013-9-4,85,74,69,64,58,49,81,60,29,29.18,29.12,0,0,0,0.00
2013-9-5,89,76,64,66,60,52,93,62,30,29.23,29.18,14,2,14,0.00
2013-9-6,87,69,60,59,54,42,84,63,22,29.21,29.15,17,4,17,0.00
2013-9-17,65,59,49,57,49,44,91,72,49,29.32,29.09,21,6,21,0.00
2013-9-20,65,60,51,50,44,40,84,56,42,29.00,28.94,25,6,25,0.00
2013-9-21,73,57,44,48,40,26,98,61,18,29.03,28.94,21,2,21,0.00
2013-9-22,73,59,46,48,41,-25,93,58,26,29.06,28.97,17,3,17,0.00
2013-9-23,74,60,48,46,40,26,92,53,17,29.09,28.97,24,5,24,0.00
2013-9-24,74,62,50,48,42,29,81,52,21,29.00,28.94,17,4,17,0.00
2013-9-25,78,64,50,48,42,31,88,50,20,29.03,28.94,12,2,12,0.00
2013-9-26,82,67,54,54,47,41,86,52,25,29.06,28.97,28,6,28,0.00
2013-9-27,83,70,56,54,47,40,79,48,24,29.09,29.00,31,8,31,0.00
2013-9-28,73,63,50,65,52,38,95,70,32,29.06,28.88,20,8,20,0.28
2013-9-29,73,58,43,50,37,17,98,56,12,29.12,29.00,16,2,16,0.00
2013-9-30,76,63,49,52,37,24,80,44,14,29.00,28.82,18,4,18,0.00
2013-10-1,84,68,59,58,45,28,95,52,14,29.03,28.85,23,4,23,0.00
2013-10-2,81,69,56,56,32,3,66,30,6,29.12,28.94,21,4,21,0.00
2013-10-3,80,70,64,70,60,51,99,73,38,28.94,28.85,16,3,16,0.28
2013-10-4,72,67,62,68,63,51,99,88,59,29.00,28.82,25,5,25,2.09
2013-10-5,72,60,45,64,44,20,90,57,23,28.94,28.85,23,3,23,1.34
2013-10-6,50,46,42,46,38,29,94,75,47,28.88,28.76,20,2,20,1.34
2013-10-7,76,58,42,49,35,3,96,54,6,29.09,28.88,20,4,20,0.00
2013-10-8,78,63,51,45,29,4,77,36,6,29.15,29.06,24,4,24,1.34
2013-10-9,73,62,52,43,34,22,71,38,15,29.21,29.12,21,4,21,1.34
2013-10-10,74,61,47,46,40,31,81,49,23,29.15,29.00,23,3,23,1.34
2013-10-11,76,65,53,54,45,37,94,54,26,29.00,28.85,34,9,34,1.34
2013-10-12,68,60,46,54,26,-7,67,33,5,29.26,28.88,33,7,33,1.34
2013-10-13,55,40,34,33,26,23,77,59,34,29.44,29.26,7,0,7,0.00
2013-10-14,64,56,40,32,26,19,60,32,18,29.38,29.00,21,8,21,1.34
2013-10-15,59,53,49,57,40,28,95,64,35,29.00,28.85,28,12,28,1.34
2013-10-16,49,47,46,46,42,39,94,83,68,29.03,28.91,27,7,27,1.34
2013-10-17,62,49,42,44,30,2,91,56,12,29.00,28.85,21,2,21,1.34
2013-10-18,56,46,40,41,26,12,87,50,21,29.06,28.91,20,7,20,1.34
2013-10-19,53,42,35,38,29,20,83,62,28,28.97,28.82,28,5,28,1.34
2013-10-20,58,45,33,39,30,23,87,58,37,28.91,28.73,24,4,24,1.34
2013-10-21,46,38,30,30,17,7,73,44,22,29.06,28.91,31,7,31,1.34
2013-10-22,39,33,26,36,28,17,98,82,61,29.09,28.97,8,1,8,0.20
2013-10-23,45,35,28,33,22,9,88,61,26,29.15,29.06,19,4,19,0.00
2013-10-24,43,35,27,17,13,8,60,41,24,29.38,29.12,16,5,16,0.00
2013-10-25,54,40,26,27,15,-3,88,46,10,29.41,29.06,26,7,26,0.00
2013-10-26,54,44,33,27,17,5,58,36,14,29.18,28.94,26,9,26,0.00
2013-10-27,59,43,27,25,17,3,80,42,11,29.15,28.94,14,3,14,0.00
2013-10-28,54,43,37,28,24,17,64,47,32,29.35,29.03,20,6,20,0.00
2013-10-29,56,46,36,34,28,25,77,51,30,29.35,29.12,12,5,12,0.00
2013-10-30,59,54,51,58,51,35,99,90,54,29.12,28.73,17,5,17,0.51
2013-10-31,61,49,41,61,46,34,99,92,74,28.70,28.47,18,6,18,0.04
2013-11-1,52,44,40,39,34,26,86,68,38,28.85,28.53,18,3,18,0.00
2013-11-2,54,42,31,37,24,8,88,55,17,29.18,28.85,17,3,17,0.00
2013-11-3,53,43,31,25,22,17,77,46,24,29.23,29.09,27,10,27,0.00
2013-11-4,50,48,46,44,34,21,83,60,36,29.18,29.03,24,8,24,0.00
2013-11-5,56,49,42,55,47,37,99,91,81,29.23,28.85,22,5,22,0.55
2013-11-6,57,40,28,56,27,10,99,64,23,29.29,28.79,23,10,23,0.12
2013-11-7,48,34,25,27,21,14,88,60,26,29.32,29.23,22,6,22,0.00
2013-11-8,49,38,24,27,18,10,86,50,23,29.29,28.82,26,9,26,0.00
2013-11-9,56,46,34,32,26,22,67,46,30,29.26,28.82,20,8,20,0.00
2013-11-10,46,38,26,25,20,16,82,51,29,29.41,29.21,14,2,14,0.00
2013-11-11,44,31,14,26,17,4,88,57,39,29.68,29.12,19,8,19,0.00
2013-11-12,31,19,8,7,2,-1,71,51,27,29.83,29.62,13,2,13,0.00
2013-11-13,47,32,18,6,-2,-20,56,29,6,29.62,29.09,22,6,22,0.00
2013-11-14,50,41,34,18,13,6,42,32,21,29.09,28.94,19,5,19,0.00
2013-11-15,58,44,32,26,21,15,68,42,20,28.97,28.82,16,4,16,0.00
2013-11-16,62,52,41,54,46,26,99,79,52,28.82,28.41,22,12,22,0.00
2013-11-17,57,48,38,55,42,30,99,80,61,28.91,28.35,22,9,22,0.79
2013-11-18,44,36,24,31,20,12,81,56,27,29.32,28.91,23,9,23,0.00
2013-11-19,46,34,23,22,17,11,88,55,27,29.32,29.15,22,8,22,0.00
2013-11-20,39,37,34,35,26,13,96,69,35,29.15,29.00,19,9,19,0.12
2013-11-21,43,36,30,39,34,29,99,92,70,29.38,29.09,16,4,16,0.00
2013-11-22,35,26,15,28,15,3,95,67,35,29.59,29.38,20,5,20,0.04
2013-11-23,23,14,5,8,-4,-13,66,46,29,29.80,29.56,22,7,22,0.00
2013-11-24,26,16,3,0,-8,-15,48,36,21,29.77,29.32,19,3,19,0.00
2013-11-25,33,27,21,23,16,1,88,64,39,29.32,29.12,17,6,17,0.00
2013-11-26,31,23,10,19,5,-6,78,48,26,29.32,29.12,26,8,26,0.00
2013-11-27,28,16,5,1,-4,-10,54,42,21,29.38,29.18,9,2,9,0.00
2013-11-28,34,22,14,9,5,1,69,47,30,29.53,29.12,14,4,14,0.00
2013-11-29,33,22,8,13,7,0,70,54,36,29.59,29.29,19,6,19,0.00
2013-11-30,46,35,28,25,19,12,81,55,35,29.29,29.09,17,6,17,0.00
2013-12-1,47,34,24,29,23,17,91,65,33,29.18,28.97,9,1,9,0.00
2013-12-2,40,35,32,34,29,25,94,79,61,28.97,28.67,21,8,21,0.00
2013-12-3,42,38,35,42,38,34,99,99,95,28.70,28.59,14,6,14,0.00
2013-12-4,48,37,22,47,36,15,99,95,72,28.85,28.47,22,9,22,0.04
2013-12-5,22,14,9,14,-1,-6,70,51,42,29.38,28.85,23,10,23,0.00
2013-12-6,16,8,2,-2,-11,-21,51,41,30,29.65,29.38,13,5,13,0.00
2013-12-7,16,6,-4,-11,-22,-28,33,26,18,29.77,29.59,10,2,10,0.00
2013-12-8,19,15,10,15,-3,-25,84,54,18,29.59,29.03,19,4,19,0.00
2013-12-9,15,2,-6,11,-1,-10,83,83,83,29.26,29.03,19,5,19,0.00
2013-12-10,15,11,-5,9,-2,-9,83,60,36,29.26,28.97,28,8,28,0.00
2013-12-11,15,3,-8,10,-2,-13,81,73,43,29.62,29.26,15,3,15,0.00
2013-12-12,20,9,-5,8,1,-4,74,29,42,29.56,29.21,12,2,12,0.00
2013-12-13,27,19,7,16,8,-2,74,61,49,29.21,29.03,17,4,17,0.00
2013-12-14,24,19,12,14,10,1,81,68,55,29.15,29.09,18,7,18,0.00
2013-12-15,12,9,5,2,-2,-6,61,61,61,29.15,29.12,17,6,17,0.00
2013-12-16,20,14,9,18,6,-1,89,69,59,29.12,29.00,12,4,12,0.00
2013-12-17,35,24,12,19,11,5,86,60,37,29.21,29.03,23,9,23,0.00
2013-12-18,44,28,13,26,12,2,76,54,32,29.18,28.79,24,4,24,0.00
2013-12-19,35,30,24,28,22,17,95,76,52,28.94,28.82,16,6,16,0.00
2013-12-20,30,24,22,29,21,18,96,89,80,28.91,28.82,12,3,12,0.00
2013-12-21,26,24,22,25,22,20,96,88,76,28.91,28.76,15,5,15,0.00
2013-12-22,26,20,2,25,14,-6,95,79,60,29.26,28.76,18,9,18,0.00
2013-12-23,1,-4,-9,-7,-12,-17,68,68,68,29.53,29.26,22,8,22,0.00
2013-12-24,12,-4,-18,3,-12,-25,68,68,68,29.56,29.23,14,6,14,0.00
2013-12-25,26,19,12,22,13,3,90,78,51,29.23,29.15,18,7,18,0.00
2013-12-26,34,22,9,21,12,2,83,66,46,29.23,29.12,8,1,8,0.00
2013-12-27,42,28,14,20,16,11,91,64,36,29.26,29.09,12,4,12,0.04
2013-12-28,47,37,28,27,20,18,77,52,33,29.12,28.82,14,5,14,0.00
2013-12-29,32,11,-7,27,1,-14,88,50,3,29.32,28.85,25,14,25,0.00
2013-12-30,5,-3,-11,-14,-24,-60,3,3,3,29.32,29.21,9,2,9,0.00
2013-12-31,7,1,-10,-58,-59,-60,3,3,3,29.35,29.23,11,3,11,0.00
2014-1-1,10,7,3,-56,-58,-60,3,3,3,29.35,29.26,13,8,13,0.00
2014-1-2,10,3,-11,-56,-59,-60,3,3,3,29.47,29.32,18,6,18,0.00